Location: *
(12.5665°N, 8.3471°E)
Time: 10:57:34
(UTC+00:00)

SL-4 R/B - Pass Details

Date: 23 September 2019
Orbit: 428 x 667 km, 51.6° (Epoch: 19 October)

Event Time Altitude Azimuth Distance (km) Brightness Sun altitude
Exits shadow 04:02:38 - 345° (NNW) 2,107 4.9 -18.7°
Reaches altitude 10° 04:04:02 10° 354° (N) 1,616 4.4 -18.3°
Maximum altitude 04:07:06 25° 52° (NE) 1,006 4.0 -17.6°
Drops below altitude 10° 04:10:21 10° 109° (ESE) 1,724 5.6 -16.8°
Sets 04:12:55 0° 122° (ESE) 2,661 6.4 -16.2°
